Voltar ao catálogo

KUIPER-00526

AtivoComunicaçõesLEO
NORAD 69764·PAYLOAD·🇺🇸 United States

Lançado Jul 2, 2026 de Cape Canaveral Space Force Station

Loading…

Próximas Passagens (próximas 24 horas)

TLE

AtualizadoSource: CelesTrak SupGP

Época: Sep 14, 2026, 21:30 UTC

1 69764C 26151B   26257.89618056  .00003581  00000+0  46890-3 0  2575
2 69764  51.8975 259.0484 0000660  63.0586 108.5107 14.79917207    11

Acompanhe KUIPER-00526 em tempo real com AllMySat

Download on the App Store